Regional Weather Roundup
Issued by NWS

Home | Current Version | Previous Version | Graphics & Text | Print | Product List | Glossary On
Versions: 1 2 3 4 5 6 7 8 9 10 11 12 13 14 15 16 17 18 19 20 21 22 23 24 25 26 27
000
ASUS45 KBOU 190707
RWRCO

WEATHER ROUNDUP FOR COLORADO
NATIONAL WEATHER SERVICE DENVER/BOULDER CO
1200 AM MST THU JAN 19 2017

NOTE: "FAIR" INDICATES FEW OR NO CLOUDS BELOW 12000 FEET WITH NO
SIGNIFICANT WEATHER AND/OR OBSTRUCTIONS TO VISIBILITY.

COZ001>005-013-030-031-190800-
...NORTHWEST COLORADO...

CITY           SKY/WX    TMP DP  RH WIND       PRES   REMARKS
CRAIG          FAIR       7   1  76 E3        29.96F
HAYDEN         FAIR      16  10  79 E10       29.94F WCI   3
MEEKER         FAIR      13  10  88 CALM      29.95F
MOUNT WERNER   NOT AVBL
STEAMBOAT SPGS FAIR       8   7  92 CALM      29.95S
WALDEN           N/A    N/A N/A N/A CALM      29.91F
$$

COZ006>008-011-190800-
...WEST CENTRAL VALLEYS...

CITY           SKY/WX    TMP DP  RH WIND       PRES   REMARKS
GRAND JUNCTION FAIR      30  28  92 E6        29.97F WCI  24
MONTROSE       FAIR      28  24  85 CALM      29.99F
EAGLE          FAIR      14  11  87 SW3       30.01S
RIFLE          FAIR      27  22  81 CALM      29.98S
DELTA          FAIR      31  26  81 NE6       29.99F WCI  26
NUCLA          FAIR      30  23  74 E10       30.01F WCI  21
$$

COZ017>023-064>068-190800-
...SOUTHWEST COLORADO...

CITY           SKY/WX    TMP DP  RH WIND       PRES   REMARKS
DURANGO        FAIR      26  22  84 CALM      29.96F
CORTEZ         FAIR      25  24  96 E6        29.98F WCI  18
PAGOSA SPRINGS CLOUDY    32  30  95 CALM      29.95F
TELLURIDE      FAIR      20  15  81 SE6       29.97F WCI  12
WOLF CREEK PAS   N/A     12  12 100 SW9       29.98F WCI   0
$$

COZ009-010-012-014-032>034-037-058>063-190800-
...CENTRAL COLORADO...

CITY           SKY/WX    TMP DP  RH WIND       PRES   REMARKS
ASPEN          FAIR      17  11  77 SW9       29.94F WCI   6
BUENA VISTA    FAIR       6   3  85 SW7       29.86F WCI  -5
COPPER MTN     FAIR      19  12  73 MISG      29.95S
BERTHOUD PASS  NOT AVBL
COTTONWOOD PAS FAIR      30  12  47 NW9       29.85F WCI  22
GUNNISON       FAIR       0  -3  87 NE5       30.02F WCI -10
KREMMLING      FAIR       5   0  78 CALM      30.01F
LEADVILLE      FAIR      13   7  77 N10       29.91R WCI   0
MONARCH PASS   CLOUDY    12   9  85 MISG      29.99F
SALIDA         FAIR      31  19  61 W14G20    29.92F WCI  21
SUNLIGHT       FAIR      16  12  86 SW13      29.98F WCI   2
WILKERSON PASS FAIR      28   1  31 NW8G16    29.86F WCI  20
$$

COZ069>075-190800-
...SAN LUIS VALLEY/SANGRE DE CRISTO MOUNTAINS...

CITY           SKY/WX    TMP DP  RH WIND       PRES   REMARKS
ALAMOSA        CLOUDY    24  22  91 CALM      29.95F
LA VETA PASS   LGT SNOW  19  16  86 NE39G49   29.81F WCI  -2
SAGUACHE       CLOUDY    19  16  86 NW5       29.97F WCI  13
$$

COZ035-036-038>040-190800-
...NORTHERN COLORADO FRONT RANGE...

CITY           SKY/WX    TMP DP  RH WIND       PRES   REMARKS
DENVER INTL AP FAIR      32  16  51 SW12      29.66F WCI  23
DMNS CITY PARK   N/A     32  15  49 SE7       29.67F WCI  25
AURORA         PTCLDY    31  13  47 S8        29.68F WCI  24
FRONT RANGE AP FAIR      30  19  64 SW8       29.67F WCI  23
ERIE MUNI ARPT FAIR      23  19  84 S3        29.67F
BOULDER MUN AP FAIR      34  19  55 SW5       29.67F WCI  30
CENTENNIAL     FAIR      29  11  47 CALM      29.68F
BROOMFIELD     FAIR      37  18  44 NW6       29.68F
FORT COLLINS   FAIR      28  19  69 CALM      29.68F
LONGMONT       FAIR      25  18  74 CALM      29.70F
$$

COZ041-046-047-076>085-087-088-190800-
...PIKES PEAK/PALMER DIVIDE AND SOUTHERN FOOTHILLS...

CITY           SKY/WX    TMP DP  RH WIND       PRES   REMARKS
COLO. SPRINGS  FAIR      28  12  51 N10       29.68F WCI  19
A. F. ACADEMY  FAIR      25  11  55 N12       29.69F WCI  14
SCHRIEVER AFB  NOT AVBL
ELLICOTT       FAIR     N/A N/A N/A CALM      29.66F
FALCON         FAIR      39   1  20 N13       29.69F
FORT CARSON    CLEAR     36  12  38 W5        29.69F
LIMON          FAIR      16  13  88 N6        29.66F WCI   7
MONUMENT HILL  FAIR      27   9  46 W7        29.72F WCI  19
TRINIDAD       FAIR      27  18  69 W13       29.69F WCI  16
$$

COZ042>045-048>051-090-091-190800-
...NORTHEAST COLORADO...

CITY           SKY/WX    TMP DP  RH WIND       PRES   REMARKS
GREELEY ARPT   FAIR      24  23  96 NW7       29.69F WCI  16
AKRON          FAIR      29  18  63 W7        29.65F WCI  22
BURLINGTON     FAIR      30  25  81 SW9       29.66F WCI  22
WRAY           NOT AVBL
STERLING       FAIR      21  19  93 S6        29.66F WCI  14
HOLYOKE        FAIR      21  19  93 W3        29.68S
FORT MORGAN    FAIR      24  20  83 W7        29.66F WCI  16
$$

COZ086-089-092>099-190800-
...SOUTHEAST COLORADO...

CITY           SKY/WX    TMP DP  RH WIND       PRES   REMARKS
PUEBLO         FAIR      25  22  88 CALM      29.68F
LA JUNTA       FAIR      20  17  88 W10       29.68F FOG     WCI   9
LAMAR          FAIR      20  17  88 SW7       29.66F WCI  11
SPRINGFIELD      N/A     28  25  88 W7        29.65F WCI  21
$$




USA.gov is the U.S. government's official web portal to all federal, state and local government web resources and services.